VKG358 ESSA-VVTS

Flight info

Callsign VKG358
Flight time N/A
Altitude 29000
Route BABAP T316 NEPVA DCT PENOR/N0491F310 N133 MOTAD DCT LENOV DCT KENIN DCT SAT DCT DOKUD DCT DINRO N743 UDROS UM859 KARDE/N0492F330 UN644 ROLIN N644 LAGAS M747 SUBUT T923 ERLEV M11 RODAR A909 NINOP B475 DAVET P173 TAPIS L509 HANGU/N0490F350 J139 NONIB L509 SULOM A466 ASARI L509 GGC R460 CEA L507 BKK N506 ELMOP R468 SAPEN SAPEN5B
Aircraft B77W/H-SDE1E2E3FGHIJ2J3J4J5M1RWXY/LB1D1

Departure

Time N/A
Airport Stockholm-Arlanda Airport (ESSA)

Arrival

Time 2026-05-06 08:48
Airport Tan Son Nhat International Airport (VVTS)
Time Latitude Longitude Altitude Speed Heading
2026-05-06 05:13 45.70288 26.07826 31046 ft 503 kts 133°
2026-05-06 05:14 45.65346 26.14908 31045 ft 503 kts 133°
2026-05-06 05:14 45.60429 26.21936 31043 ft 503 kts 133°
2026-05-06 05:15 45.55474 26.28996 31034 ft 503 kts 133°
2026-05-06 05:15 45.50518 26.36040 31046 ft 503 kts 133°
2026-05-06 05:16 45.45557 26.43074 31034 ft 503 kts 133°
2026-05-06 05:16 45.40592 26.50097 31037 ft 503 kts 133°
2026-05-06 05:17 45.35618 26.57111 31034 ft 503 kts 133°
2026-05-06 05:17 45.30640 26.64111 31036 ft 503 kts 133°
2026-05-06 05:18 45.25660 26.71098 31041 ft 503 kts 133°
2026-05-06 05:18 45.20678 26.78071 31040 ft 503 kts 133°
2026-05-06 05:19 45.15694 26.85026 31043 ft 503 kts 134°
2026-05-06 05:19 45.10710 26.91964 31044 ft 502 kts 134°
2026-05-06 05:20 45.05759 26.98838 31047 ft 502 kts 134°
2026-05-06 05:20 45.00772 27.05744 31043 ft 502 kts 134°
2026-05-06 05:21 44.95785 27.12633 31041 ft 501 kts 134°
2026-05-06 05:21 44.90801 27.19500 31044 ft 501 kts 134°
2026-05-06 05:22 44.85815 27.26352 31041 ft 500 kts 134°
2026-05-06 05:22 44.80828 27.33189 31042 ft 500 kts 134°
2026-05-06 05:23 44.75841 27.40008 31045 ft 500 kts 134°
2026-05-06 05:23 44.68353 27.50213 31044 ft 500 kts 134°
2026-05-06 05:24 44.63360 27.56996 31043 ft 499 kts 134°
2026-05-06 05:24 44.58365 27.63766 31051 ft 499 kts 134°
2026-05-06 05:25 44.53372 27.70516 31034 ft 499 kts 134°
2026-05-06 05:25 44.48378 27.77251 31051 ft 498 kts 135°
2026-05-06 05:26 44.43380 27.83973 31055 ft 498 kts 135°
2026-05-06 05:26 44.38380 27.90682 31035 ft 498 kts 135°
2026-05-06 05:27 44.33380 27.97374 31059 ft 498 kts 135°
2026-05-06 05:27 44.29222 28.02925 31039 ft 497 kts 135°
2026-05-06 05:28 44.24221 28.09589 31069 ft 497 kts 135°
2026-05-06 05:28 44.19217 28.16240 31050 ft 497 kts 135°
2026-05-06 05:29 44.14211 28.22876 31063 ft 497 kts 135°
2026-05-06 05:29 44.09200 28.29503 31061 ft 497 kts 135°
2026-05-06 05:30 44.04191 28.36111 31058 ft 497 kts 135°
2026-05-06 05:30 43.99177 28.42710 31059 ft 496 kts 135°
2026-05-06 05:31 43.94158 28.49299 31065 ft 496 kts 135°
2026-05-06 05:31 43.89138 28.55874 31069 ft 497 kts 135°
2026-05-06 05:32 43.84110 28.62444 31072 ft 497 kts 135°
2026-05-06 05:32 43.79076 28.69006 31077 ft 497 kts 135°
2026-05-06 05:33 43.74045 28.75550 31087 ft 497 kts 135°
2026-05-06 05:33 43.69178 28.82318 31090 ft 496 kts 128°
2026-05-06 05:34 43.65131 28.89924 31096 ft 495 kts 124°
2026-05-06 05:34 43.61140 28.97675 31093 ft 495 kts 124°
2026-05-06 05:35 43.57116 29.05395 31097 ft 496 kts 124°
2026-05-06 05:35 43.53062 29.13102 31094 ft 496 kts 124°
2026-05-06 05:36 43.49000 29.20791 31092 ft 496 kts 124°
2026-05-06 05:36 43.44933 29.28474 31097 ft 497 kts 124°
2026-05-06 05:37 43.40859 29.36152 31095 ft 497 kts 124°
2026-05-06 05:37 43.36779 29.43823 31096 ft 497 kts 124°
2026-05-06 05:38 43.32696 29.51479 31095 ft 497 kts 124°
2026-05-06 05:38 43.28601 29.59139 31102 ft 497 kts 124°
2026-05-06 05:39 43.24499 29.66791 31096 ft 498 kts 124°
2026-05-06 05:39 43.20389 29.74437 31102 ft 498 kts 124°
2026-05-06 05:40 43.16270 29.82081 31102 ft 499 kts 124°
2026-05-06 05:40 43.12140 29.89727 31104 ft 499 kts 124°
2026-05-06 05:41 43.08001 29.97368 31101 ft 500 kts 124°
2026-05-06 05:41 43.03851 30.05010 31105 ft 501 kts 124°
2026-05-06 05:42 42.99695 30.12644 31106 ft 501 kts 124°
2026-05-06 05:42 42.95556 30.20228 31103 ft 501 kts 124°
2026-05-06 05:43 42.91381 30.27858 31103 ft 502 kts 124°
2026-05-06 05:43 42.87199 30.35481 31103 ft 502 kts 124°
2026-05-06 05:44 42.82980 30.43154 31097 ft 503 kts 124°
2026-05-06 05:44 42.78806 30.50726 31101 ft 503 kts 124°
2026-05-06 05:45 42.75033 30.58674 31095 ft 498 kts 111°
2026-05-06 05:45 42.72957 30.67567 31097 ft 490 kts 95°
2026-05-06 05:46 42.72073 30.76741 31106 ft 490 kts 94°
2026-05-06 05:46 42.71210 30.85942 31108 ft 491 kts 94°
2026-05-06 05:47 42.70291 30.95153 31106 ft 492 kts 94°
2026-05-06 05:47 42.69339 31.04369 31096 ft 492 kts 94°
2026-05-06 05:48 42.68378 31.13561 31100 ft 491 kts 94°
2026-05-06 05:48 42.67412 31.22744 31105 ft 490 kts 94°
2026-05-06 05:49 42.66443 31.31902 31100 ft 489 kts 94°
2026-05-06 05:49 42.65468 31.41044 31101 ft 489 kts 94°
2026-05-06 05:50 42.64488 31.50172 31100 ft 488 kts 94°
2026-05-06 05:50 42.63501 31.59288 31100 ft 488 kts 95°
2026-05-06 05:51 42.62507 31.68396 31098 ft 487 kts 95°
2026-05-06 05:51 42.61507 31.77492 31098 ft 487 kts 95°
2026-05-06 05:52 42.60500 31.86590 31098 ft 487 kts 95°
2026-05-06 05:52 42.59486 31.95689 31097 ft 488 kts 95°
2026-05-06 05:53 42.58443 32.04787 31100 ft 488 kts 96°
2026-05-06 05:53 42.57330 32.13868 31101 ft 488 kts 95°
2026-05-06 05:54 42.56305 32.22959 31100 ft 488 kts 95°
2026-05-06 05:54 42.55277 32.32050 31100 ft 488 kts 95°
2026-05-06 05:55 42.54227 32.41144 31101 ft 488 kts 95°
2026-05-06 05:55 42.53164 32.50230 31103 ft 488 kts 95°
2026-05-06 05:56 42.52102 32.59249 31101 ft 488 kts 95°
2026-05-06 05:56 42.51026 32.68326 31102 ft 488 kts 95°
2026-05-06 05:57 42.49944 32.77398 31103 ft 488 kts 95°
2026-05-06 05:57 42.48853 32.86472 31104 ft 488 kts 95°
2026-05-06 05:58 42.47757 32.95536 31105 ft 488 kts 95°
2026-05-06 05:58 42.46653 33.04601 31105 ft 488 kts 95°
2026-05-06 05:59 42.45543 33.13660 31105 ft 487 kts 95°
2026-05-06 05:59 42.44437 33.22705 31107 ft 487 kts 95°
2026-05-06 06:00 42.43329 33.31743 31098 ft 486 kts 95°
2026-05-06 06:00 42.42217 33.40754 31097 ft 485 kts 95°
2026-05-06 06:01 42.41086 33.49753 31102 ft 484 kts 95°
2026-05-06 06:01 42.39937 33.58755 31106 ft 484 kts 95°
2026-05-06 06:02 42.35329 33.94447 31112 ft 482 kts 95°
2026-05-06 06:02 42.30633 34.30083 31119 ft 480 kts 96°
2026-05-06 06:03 42.25801 34.65500 31116 ft 479 kts 97°
2026-05-06 06:03 42.20880 35.00760 31120 ft 478 kts 98°
2026-05-06 06:04 42.15876 35.35921 31127 ft 477 kts 99°
2026-05-06 06:04 42.10787 35.71004 31123 ft 477 kts 100°
2026-05-06 06:05 42.05598 36.06036 31119 ft 477 kts 101°
2026-05-06 06:05 42.00301 36.41027 31116 ft 478 kts 102°
2026-05-06 06:06 41.94932 36.75745 31118 ft 477 kts 102°
2026-05-06 06:06 41.90209 37.10758 31091 ft 477 kts 92°
2026-05-06 06:07 41.89758 37.46286 31104 ft 475 kts 92°
2026-05-06 06:07 41.89093 37.81674 31102 ft 473 kts 92°
2026-05-06 06:08 41.88326 38.16936 31104 ft 472 kts 92°
2026-05-06 06:08 41.87455 38.52072 31091 ft 470 kts 93°
2026-05-06 06:09 41.86479 38.87102 31100 ft 469 kts 93°
2026-05-06 06:09 41.85397 39.22084 31097 ft 469 kts 93°
2026-05-06 06:10 41.84216 39.57050 31105 ft 470 kts 93°
2026-05-06 06:10 41.83607 39.74677 31459 ft 476 kts 93°
2026-05-06 06:10 41.82964 39.92467 32364 ft 479 kts 94°
2026-05-06 06:11 41.82289 40.10396 33120 ft 484 kts 94°
2026-05-06 06:11 41.81537 40.28566 33155 ft 492 kts 94°
2026-05-06 06:11 41.79941 40.64709 33043 ft 475 kts 94°
2026-05-06 06:12 41.78195 41.00017 33132 ft 481 kts 95°
2026-05-06 06:12 41.76290 41.36290 33092 ft 488 kts 95°
2026-05-06 06:13 41.74309 41.71866 33077 ft 475 kts 95°
2026-05-06 06:13 41.72197 42.07792 33129 ft 494 kts 96°
2026-05-06 06:14 41.69981 42.44210 33016 ft 483 kts 96°
2026-05-06 06:14 41.68105 42.73691 33043 ft 481 kts 96°
2026-05-06 06:15 41.65645 43.09942 33048 ft 495 kts 97°
2026-05-06 06:15 41.63921 43.34214 33000 ft 483 kts 97°
2026-05-06 06:15 41.62645 43.51708 33001 ft 477 kts 97°
2026-05-06 06:16 41.59969 43.87501 33071 ft 494 kts 97°
2026-05-06 06:16 41.57588 44.18215 32994 ft 493 kts 98°
2026-05-06 06:17 41.54192 44.35603 32993 ft 480 kts 111°
2026-05-06 06:17 41.49919 44.52515 33009 ft 483 kts 110°
2026-05-06 06:17 41.41257 44.87138 33041 ft 500 kts 111°
2026-05-06 06:18 41.32366 45.22117 32954 ft 492 kts 112°
2026-05-06 06:18 41.23573 45.56178 32984 ft 491 kts 113°
2026-05-06 06:19 41.14382 45.90996 33018 ft 504 kts 114°
2026-05-06 06:19 41.05142 46.25449 32941 ft 488 kts 115°
2026-05-06 06:20 40.95953 46.59773 33042 ft 503 kts 115°
2026-05-06 06:20 40.88845 46.95620 32938 ft 509 kts 101°
2026-05-06 06:21 40.86198 47.32696 33035 ft 513 kts 102°
2026-05-06 06:21 40.83559 47.70854 33024 ft 525 kts 101°
2026-05-06 06:22 40.81169 48.08662 32942 ft 508 kts 101°
2026-05-06 06:22 40.79942 48.27049 33048 ft 515 kts 101°
2026-05-06 06:22 40.78646 48.46049 33044 ft 524 kts 101°
2026-05-06 06:23 40.75972 48.84079 32918 ft 511 kts 102°
2026-05-06 06:23 40.73219 49.21303 33011 ft 517 kts 102°
2026-05-06 06:24 40.68908 49.58995 32972 ft 518 kts 105°
2026-05-06 06:24 40.64366 49.95956 32975 ft 508 kts 105°
2026-05-06 06:25 40.59657 50.33310 33023 ft 526 kts 105°
2026-05-06 06:25 40.54783 50.71033 32920 ft 514 kts 106°
2026-05-06 06:26 40.52351 50.89454 32952 ft 511 kts 106°
2026-05-06 06:26 40.50513 51.08219 32980 ft 524 kts 102°
2026-05-06 06:26 40.48802 51.27366 33012 ft 531 kts 102°
2026-05-06 06:27 40.43977 51.65114 32912 ft 513 kts 110°
2026-05-06 06:27 40.37160 52.01493 32995 ft 521 kts 110°
2026-05-06 06:28 40.30104 52.38861 32928 ft 527 kts 110°
2026-05-06 06:28 40.23078 52.75451 32922 ft 515 kts 110°
2026-05-06 06:29 40.15888 53.12371 32983 ft 532 kts 110°
2026-05-06 06:29 40.08551 53.49420 32863 ft 518 kts 111°
2026-05-06 06:30 40.01194 53.85819 32982 ft 527 kts 111°
2026-05-06 06:30 39.93568 54.22977 32889 ft 526 kts 111°
2026-05-06 06:31 39.85958 54.59166 32923 ft 517 kts 112°
2026-05-06 06:31 39.78109 54.95822 32943 ft 534 kts 111°
2026-05-06 06:32 39.70186 55.32557 32839 ft 518 kts 112°
2026-05-06 06:32 39.62221 55.68586 32935 ft 527 kts 112°
2026-05-06 06:33 39.54023 56.05224 32852 ft 524 kts 111°
2026-05-06 06:33 39.49989 56.23147 32817 ft 513 kts 112°
2026-05-06 06:33 39.45969 56.40830 32875 ft 513 kts 112°
2026-05-06 06:34 39.37774 56.76497 32884 ft 526 kts 111°
2026-05-06 06:34 39.28829 57.11772 32801 ft 507 kts 114°
2026-05-06 06:35 39.19823 57.46429 32894 ft 517 kts 113°
2026-05-06 06:35 39.10549 57.81652 32794 ft 514 kts 113°
2026-05-06 06:36 39.01381 58.15961 32852 ft 506 kts 114°
2026-05-06 06:36 38.92000 58.50615 32850 ft 517 kts 113°
2026-05-06 06:36 38.86880 58.67672 32794 ft 503 kts 121°
2026-05-06 06:37 38.80548 58.83518 32799 ft 497 kts 122°
2026-05-06 06:37 38.67879 59.15559 32881 ft 513 kts 121°
2026-05-06 06:38 38.55151 59.48143 32744 ft 504 kts 120°
2026-05-06 06:38 38.43235 59.80287 32878 ft 507 kts 120°
2026-05-06 06:39 38.30850 60.13151 32834 ft 515 kts 120°
2026-05-06 06:39 38.18531 60.45490 32810 ft 504 kts 120°
2026-05-06 06:40 38.06022 60.77971 32888 ft 521 kts 120°
2026-05-06 06:40 37.93273 61.10750 32795 ft 511 kts 120°
2026-05-06 06:41 37.80661 61.42819 32883 ft 515 kts 119°
2026-05-06 06:41 37.67653 61.75570 32854 ft 520 kts 119°
2026-05-06 06:42 37.57880 62.09116 32822 ft 512 kts 106°
2026-05-06 06:42 37.50229 62.44363 32949 ft 526 kts 107°
2026-05-06 06:43 37.42452 62.79521 32856 ft 513 kts 107°
2026-05-06 06:43 37.34698 63.14031 32931 ft 519 kts 107°
2026-05-06 06:44 37.26725 63.48996 32851 ft 522 kts 107°
2026-05-06 06:44 37.22683 63.66524 32855 ft 511 kts 107°
2026-05-06 06:44 37.18714 63.83605 32882 ft 510 kts 107°
2026-05-06 06:45 37.10633 64.18016 32945 ft 525 kts 107°
2026-05-06 06:45 37.02408 64.52543 32867 ft 508 kts 107°
2026-05-06 06:46 36.92603 64.85608 32950 ft 515 kts 124°
2026-05-06 06:46 36.76598 65.15505 32909 ft 514 kts 124°
2026-05-06 06:47 36.60999 65.44700 32948 ft 505 kts 124°
2026-05-06 06:47 36.45093 65.74204 32958 ft 519 kts 124°
2026-05-06 06:48 36.29227 66.03385 32933 ft 503 kts 124°
2026-05-06 06:48 36.13291 66.32425 33036 ft 516 kts 124°
2026-05-06 06:49 35.97038 66.61793 33005 ft 512 kts 124°
2026-05-06 06:49 35.81014 66.90511 33059 ft 511 kts 124°
2026-05-06 06:50 35.64612 67.19797 33142 ft 523 kts 124°
2026-05-06 06:50 35.48285 67.48725 33123 ft 510 kts 124°
2026-05-06 06:51 35.40500 67.62433 33165 ft 518 kts 124°
2026-05-06 06:51 35.36354 67.69717 33134 ft 522 kts 124°
2026-05-06 06:52 35.32197 67.77005 33159 ft 521 kts 124°
2026-05-06 06:52 35.28038 67.84285 33125 ft 522 kts 124°
2026-05-06 06:53 35.23924 67.91582 33129 ft 520 kts 124°
2026-05-06 06:53 35.19831 67.98871 33136 ft 520 kts 124°
2026-05-06 06:54 35.15729 68.06144 33156 ft 520 kts 124°
2026-05-06 06:54 35.11618 68.13407 33143 ft 520 kts 124°
2026-05-06 06:55 35.07524 68.20629 33144 ft 521 kts 124°
2026-05-06 06:55 35.03385 68.27883 33170 ft 521 kts 124°
2026-05-06 06:56 34.99166 68.35071 33173 ft 521 kts 125°
2026-05-06 06:56 34.94932 68.42234 33142 ft 520 kts 125°
2026-05-06 06:57 34.90713 68.49383 33133 ft 519 kts 125°
2026-05-06 06:57 34.86501 68.56525 33108 ft 519 kts 124°
2026-05-06 06:58 34.82288 68.63655 33085 ft 518 kts 124°
2026-05-06 06:58 34.78076 68.70772 33078 ft 519 kts 124°
2026-05-06 06:59 34.73856 68.77883 33048 ft 518 kts 124°
2026-05-06 06:59 34.69631 68.84990 33020 ft 519 kts 124°
2026-05-06 07:00 34.65398 68.92095 33000 ft 519 kts 124°
2026-05-06 07:00 34.61161 68.99195 32989 ft 519 kts 124°
2026-05-06 07:01 34.56922 69.06285 32991 ft 519 kts 124°
2026-05-06 07:01 34.52678 69.13387 32975 ft 520 kts 123°
2026-05-06 07:02 34.49608 69.19629 32975 ft 518 kts 115°
2026-05-06 07:02 34.46357 69.27435 32979 ft 519 kts 114°
2026-05-06 07:03 34.43091 69.35247 32969 ft 521 kts 115°
2026-05-06 07:03 34.39776 69.43049 32973 ft 521 kts 115°
2026-05-06 07:04 34.36445 69.50831 32992 ft 521 kts 115°
2026-05-06 07:04 34.33104 69.58624 32946 ft 522 kts 115°
2026-05-06 07:05 34.29760 69.66414 32964 ft 522 kts 115°
2026-05-06 07:05 34.26412 69.74194 32993 ft 522 kts 115°
2026-05-06 07:06 34.23055 69.81981 32986 ft 523 kts 115°
2026-05-06 07:06 34.19688 69.89777 32972 ft 524 kts 115°
2026-05-06 07:07 34.16308 69.97574 32975 ft 525 kts 115°
2026-05-06 07:07 34.12903 70.05374 32974 ft 526 kts 115°
2026-05-06 07:08 34.09487 70.13182 32961 ft 526 kts 116°
2026-05-06 07:08 34.06065 70.20999 32980 ft 528 kts 115°
2026-05-06 07:09 34.02624 70.28841 32964 ft 530 kts 116°
2026-05-06 07:09 33.99177 70.36679 32963 ft 529 kts 116°
2026-05-06 07:10 33.95710 70.44511 32957 ft 531 kts 117°
2026-05-06 07:10 33.91474 70.51806 32961 ft 533 kts 129°
2026-05-06 07:11 33.86292 70.58154 32975 ft 532 kts 137°
2026-05-06 07:11 33.80855 70.64199 32969 ft 533 kts 137°
2026-05-06 07:12 33.75431 70.70292 32959 ft 535 kts 136°
2026-05-06 07:12 33.70045 70.76395 32950 ft 536 kts 136°
2026-05-06 07:13 33.64619 70.82543 32928 ft 537 kts 136°
2026-05-06 07:13 33.59178 70.88689 32932 ft 537 kts 136°
2026-05-06 07:14 33.53733 70.94827 32910 ft 537 kts 135°
2026-05-06 07:14 33.51320 70.98199 32900 ft 532 kts 120°
2026-05-06 07:14 33.49091 71.11952 32948 ft 511 kts 79°
2026-05-06 07:15 33.51488 71.46454 32898 ft 523 kts 81°
2026-05-06 07:15 33.53408 71.80793 33040 ft 521 kts 89°
2026-05-06 07:15 33.47945 71.96949 34114 ft 534 kts 122°
2026-05-06 07:16 33.39680 72.11781 34860 ft 538 kts 121°
2026-05-06 07:16 33.23197 72.42191 34866 ft 543 kts 121°
2026-05-06 07:16 33.15050 72.57112 34809 ft 530 kts 121°
2026-05-06 07:17 33.07032 72.71751 34830 ft 527 kts 121°
2026-05-06 07:17 32.90683 73.01414 34934 ft 546 kts 122°
2026-05-06 07:18 32.72740 73.30403 34808 ft 540 kts 139°
2026-05-06 07:18 32.49434 73.51922 34894 ft 537 kts 142°
2026-05-06 07:19 32.25461 73.74067 34906 ft 552 kts 142°
2026-05-06 07:19 32.01540 73.95999 34807 ft 535 kts 143°
2026-05-06 07:20 31.77885 74.17541 34908 ft 545 kts 143°
2026-05-06 07:20 31.53600 74.39511 34830 ft 551 kts 143°
2026-05-06 07:21 31.30007 74.61495 34766 ft 538 kts 137°
2026-05-06 07:21 31.08022 74.85795 34900 ft 552 kts 137°
2026-05-06 07:22 30.85494 75.10366 34871 ft 550 kts 138°
2026-05-06 07:22 30.75741 75.23825 34825 ft 541 kts 122°
2026-05-06 07:22 30.67575 75.38438 34888 ft 540 kts 122°
2026-05-06 07:23 30.50645 75.68027 34939 ft 559 kts 123°
2026-05-06 07:23 30.33496 75.97775 34829 ft 546 kts 123°
2026-05-06 07:24 30.16661 76.26766 34903 ft 547 kts 124°
2026-05-06 07:24 29.99416 76.56245 34904 ft 558 kts 124°
2026-05-06 07:25 29.82241 76.85395 34811 ft 540 kts 124°
2026-05-06 07:25 29.65175 77.14153 34934 ft 553 kts 125°
2026-05-06 07:26 29.47646 77.43486 34850 ft 552 kts 125°
2026-05-06 07:26 29.30492 77.71987 34846 ft 540 kts 126°
2026-05-06 07:27 29.13121 78.00649 34913 ft 557 kts 126°
2026-05-06 07:27 28.95528 78.29483 34808 ft 544 kts 127°
2026-05-06 07:28 28.78407 78.57345 34884 ft 543 kts 127°
2026-05-06 07:28 28.51895 79.00142 34830 ft 546 kts 128°
2026-05-06 07:29 28.34538 79.27924 34827 ft 539 kts 128°
2026-05-06 07:29 28.16843 79.56060 34895 ft 556 kts 128°
2026-05-06 07:30 27.98982 79.84285 34797 ft 542 kts 129°
2026-05-06 07:30 27.81466 80.11772 34861 ft 543 kts 129°
2026-05-06 07:31 27.63527 80.39753 34860 ft 552 kts 129°
2026-05-06 07:31 27.45768 80.67281 34777 ft 533 kts 130°
2026-05-06 07:32 27.28169 80.94378 34865 ft 544 kts 130°
2026-05-06 07:32 27.10193 81.21902 34787 ft 542 kts 130°
2026-05-06 07:33 27.01350 81.35378 34773 ft 531 kts 131°
2026-05-06 07:33 26.92626 81.48656 34816 ft 529 kts 130°
2026-05-06 07:33 26.75536 81.76160 34881 ft 545 kts 129°
2026-05-06 07:34 26.58303 82.03637 34779 ft 530 kts 130°
2026-05-06 07:34 26.41438 82.30354 34852 ft 531 kts 130°
2026-05-06 07:35 26.24113 82.57654 34824 ft 542 kts 130°
2026-05-06 07:35 26.06939 82.84561 34769 ft 525 kts 131°
2026-05-06 07:36 25.89809 83.11226 34862 ft 538 kts 131°
2026-05-06 07:36 25.72415 83.38510 34776 ft 538 kts 130°
2026-05-06 07:37 25.64166 83.51879 34749 ft 527 kts 130°
2026-05-06 07:37 25.55865 83.65193 34824 ft 526 kts 130°
2026-05-06 07:37 25.38903 83.92288 34856 ft 544 kts 130°
2026-05-06 07:38 25.21808 84.19464 34753 ft 529 kts 131°
2026-05-06 07:38 25.05024 84.45967 34841 ft 532 kts 131°
2026-05-06 07:39 24.87803 84.73030 34845 ft 540 kts 131°
2026-05-06 07:39 24.70818 84.99695 34756 ft 525 kts 130°
2026-05-06 07:40 24.54311 85.26556 34892 ft 538 kts 130°
2026-05-06 07:40 24.37377 85.53873 34841 ft 536 kts 130°
2026-05-06 07:41 24.20767 85.80505 34867 ft 528 kts 130°
2026-05-06 07:41 24.03979 86.07281 34910 ft 544 kts 130°
2026-05-06 07:42 23.87017 86.34203 34807 ft 528 kts 130°
2026-05-06 07:42 23.71317 86.61160 34902 ft 532 kts 126°
2026-05-06 07:43 23.55783 86.89011 34794 ft 535 kts 127°
2026-05-06 07:43 23.48099 87.02724 34756 ft 524 kts 127°
2026-05-06 07:43 23.40564 87.16196 34776 ft 519 kts 127°
2026-05-06 07:44 23.25312 87.43375 34840 ft 535 kts 127°
2026-05-06 07:44 23.09855 87.70795 34754 ft 523 kts 127°
2026-05-06 07:45 22.94743 87.97436 34834 ft 521 kts 127°
2026-05-06 07:45 22.79268 88.24589 34792 ft 533 kts 127°
2026-05-06 07:46 22.63566 88.51238 34770 ft 514 kts 131°
2026-05-06 07:46 22.46731 88.76593 34834 ft 527 kts 130°
2026-05-06 07:47 22.29612 89.02443 34746 ft 524 kts 130°
2026-05-06 07:47 22.13666 89.28362 34809 ft 518 kts 128°
2026-05-06 07:48 21.97476 89.54455 34849 ft 534 kts 128°
2026-05-06 07:48 21.81099 89.80749 34764 ft 520 kts 128°
2026-05-06 07:49 21.65010 90.06438 34857 ft 523 kts 128°
2026-05-06 07:49 21.48546 90.32620 34835 ft 527 kts 128°
2026-05-06 07:50 21.32371 90.58220 34806 ft 512 kts 128°
2026-05-06 07:50 21.16147 90.83814 34888 ft 528 kts 128°
2026-05-06 07:51 20.99610 91.09803 34805 ft 521 kts 128°
2026-05-06 07:51 20.83425 91.35106 34832 ft 517 kts 128°
2026-05-06 07:52 20.69686 91.56502 34881 ft 531 kts 128°
2026-05-06 07:52 20.50340 91.86506 34791 ft 515 kts 128°
2026-05-06 07:53 20.33893 92.11691 34868 ft 525 kts 129°
2026-05-06 07:53 20.19768 92.33020 34830 ft 529 kts 129°
2026-05-06 07:54 20.03059 92.58178 34792 ft 514 kts 129°
2026-05-06 07:54 19.86290 92.83305 34877 ft 529 kts 128°
2026-05-06 07:55 19.69264 93.08728 34789 ft 521 kts 128°
2026-05-06 07:55 19.52604 93.33486 34833 ft 517 kts 128°
2026-05-06 07:56 19.35629 93.58615 34853 ft 529 kts 128°
2026-05-06 07:56 19.18698 93.83580 34774 ft 513 kts 128°
2026-05-06 07:57 19.01919 94.08211 34857 ft 524 kts 128°
2026-05-06 07:57 18.84731 94.33354 34807 ft 526 kts 128°
2026-05-06 07:58 18.67956 94.57791 34799 ft 513 kts 128°
2026-05-06 07:58 18.51122 94.82668 34848 ft 529 kts 126°
2026-05-06 07:59 18.34428 95.08129 34750 ft 517 kts 126°
2026-05-06 07:59 18.17657 95.32237 34786 ft 517 kts 128°
2026-05-06 08:00 18.00156 95.56819 34787 ft 527 kts 128°
2026-05-06 08:00 17.82840 95.81058 34730 ft 511 kts 128°
2026-05-06 08:01 17.65559 96.05157 34821 ft 525 kts 128°
2026-05-06 08:01 17.47967 96.29606 34747 ft 519 kts 128°
2026-05-06 08:02 17.30775 96.53409 34788 ft 512 kts 128°
2026-05-06 08:02 17.13042 96.77369 34833 ft 525 kts 128°
2026-05-06 08:03 16.95400 97.01159 34754 ft 508 kts 128°
2026-05-06 08:03 16.78031 97.24497 34835 ft 515 kts 128°
2026-05-06 08:04 16.60283 97.48266 34794 ft 516 kts 128°
2026-05-06 08:04 16.42910 97.71460 34793 ft 504 kts 128°
2026-05-06 08:05 16.33704 97.82563 34820 ft 511 kts 139°
2026-05-06 08:05 16.22818 97.92213 34878 ft 518 kts 140°
2026-05-06 08:05 16.01132 98.11682 34780 ft 507 kts 140°
2026-05-06 08:06 15.80062 98.30563 34837 ft 506 kts 139°
2026-05-06 08:06 15.58631 98.49716 34876 ft 514 kts 139°
2026-05-06 08:07 15.39114 98.70490 34877 ft 498 kts 128°
2026-05-06 08:07 15.21424 98.93131 34905 ft 514 kts 128°
2026-05-06 08:08 15.03505 99.15930 34815 ft 503 kts 128°
2026-05-06 08:08 14.85945 99.38213 34844 ft 505 kts 129°
2026-05-06 08:09 14.67848 99.61046 34822 ft 513 kts 129°
2026-05-06 08:09 14.50052 99.83445 34755 ft 496 kts 129°
2026-05-06 08:10 14.32363 100.05700 34842 ft 509 kts 129°
2026-05-06 08:10 14.14280 100.28428 35719 ft 511 kts 129°
2026-05-06 08:11 14.05312 100.39676 36665 ft 506 kts 129°
2026-05-06 08:11 13.96356 100.50895 36838 ft 508 kts 129°
2026-05-06 08:11 13.87917 100.62370 36837 ft 499 kts 118°
2026-05-06 08:11 13.81745 100.75017 36781 ft 489 kts 117°
2026-05-06 08:12 13.69502 100.99664 36822 ft 491 kts 117°
2026-05-06 08:12 13.56850 101.25075 36824 ft 502 kts 117°
2026-05-06 08:13 13.44322 101.50221 36766 ft 485 kts 117°
2026-05-06 08:13 13.32165 101.75144 36856 ft 495 kts 116°
2026-05-06 08:14 13.19752 102.00797 36824 ft 502 kts 117°
2026-05-06 08:14 13.07501 102.25997 36784 ft 486 kts 117°
2026-05-06 08:15 12.95248 102.50966 36861 ft 498 kts 121°
2026-05-06 08:15 12.80683 102.75333 36790 ft 498 kts 122°
2026-05-06 08:16 12.66505 102.99119 36797 ft 485 kts 122°
2026-05-06 08:16 12.52207 103.23031 36875 ft 501 kts 122°
2026-05-06 08:17 12.37642 103.47330 36779 ft 494 kts 122°
2026-05-06 08:17 12.23443 103.70958 36832 ft 488 kts 122°
2026-05-06 08:18 12.11238 103.91128 36884 ft 503 kts 122°
2026-05-06 08:18 12.02975 104.04764 36846 ft 503 kts 122°
2026-05-06 08:19 11.88478 104.28642 36777 ft 487 kts 122°
2026-05-06 08:19 11.74043 104.52290 36861 ft 498 kts 122°
2026-05-06 08:20 11.59330 104.76349 36794 ft 502 kts 122°
2026-05-06 08:20 11.50508 104.94181 36799 ft 488 kts 111°
2026-05-06 08:21 11.48059 105.00640 36826 ft 496 kts 111°
2026-05-06 08:21 11.45509 105.07253 36816 ft 498 kts 112°
2026-05-06 08:22 11.42952 105.13818 36819 ft 498 kts 112°
2026-05-06 08:22 11.40408 105.20330 36821 ft 497 kts 112°
2026-05-06 08:23 11.37857 105.26864 36829 ft 495 kts 112°
2026-05-06 08:23 11.35314 105.33375 36830 ft 494 kts 112°
2026-05-06 08:24 11.34041 105.36633 36418 ft 500 kts 112°
2026-05-06 08:24 11.32743 105.39950 35684 ft 504 kts 112°
2026-05-06 08:24 11.31446 105.43267 34882 ft 505 kts 112°
2026-05-06 08:24 11.30143 105.46598 34030 ft 508 kts 112°
2026-05-06 08:25 11.28829 105.49957 33034 ft 511 kts 111°
2026-05-06 08:25 11.27510 105.53325 32079 ft 513 kts 111°
2026-05-06 08:25 11.26187 105.56706 31126 ft 514 kts 111°
2026-05-06 08:25 11.24859 105.60094 30213 ft 515 kts 111°
2026-05-06 08:26 11.23539 105.63463 29486 ft 509 kts 111°
2026-05-06 08:26 11.22233 105.66794 28742 ft 504 kts 111°
2026-05-06 08:26 11.20941 105.70089 28054 ft 497 kts 111°
2026-05-06 08:26 11.19667 105.73334 27405 ft 491 kts 111°
2026-05-06 08:27 11.18406 105.76549 26767 ft 486 kts 111°
2026-05-06 08:27 11.17157 105.79730 26134 ft 481 kts 111°
2026-05-06 08:27 11.15919 105.82881 25497 ft 477 kts 112°
2026-05-06 08:27 11.14691 105.86009 24859 ft 474 kts 111°
2026-05-06 08:28 11.13472 105.89109 24232 ft 470 kts 112°
2026-05-06 08:28 11.12260 105.92195 23599 ft 468 kts 112°
2026-05-06 08:28 11.11053 105.95261 22950 ft 464 kts 112°
2026-05-06 08:28 11.09864 105.98286 22391 ft 457 kts 112°
2026-05-06 08:29 11.08691 106.01272 21771 ft 453 kts 111°
2026-05-06 08:29 11.07527 106.04236 21168 ft 448 kts 111°
2026-05-06 08:29 11.06375 106.07171 20588 ft 444 kts 111°
2026-05-06 08:29 11.05233 106.10078 20001 ft 440 kts 111°
2026-05-06 08:30 11.04100 106.12958 19404 ft 437 kts 111°
2026-05-06 08:30 11.03142 106.15856 18795 ft 429 kts 101°
2026-05-06 08:30 11.03013 106.18868 18235 ft 426 kts 84°
2026-05-06 08:30 11.03639 106.21799 17599 ft 424 kts 70°
2026-05-06 08:31 11.04879 106.24485 17010 ft 416 kts 63°
2026-05-06 08:31 11.06206 106.27090 16421 ft 413 kts 63°
2026-05-06 08:31 11.07522 106.29676 15861 ft 410 kts 63°
2026-05-06 08:31 11.08820 106.32249 15304 ft 407 kts 63°
2026-05-06 08:32 11.10098 106.34809 14739 ft 404 kts 64°
2026-05-06 08:32 11.11360 106.37357 14171 ft 402 kts 64°
2026-05-06 08:32 11.12611 106.39898 13611 ft 400 kts 64°
2026-05-06 08:32 11.13848 106.42416 13072 ft 396 kts 64°
2026-05-06 08:33 11.15055 106.44878 12515 ft 393 kts 64°
2026-05-06 08:33 11.16271 106.47360 12077 ft 391 kts 64°
2026-05-06 08:33 11.17478 106.49824 11809 ft 387 kts 64°
2026-05-06 08:33 11.18668 106.52251 11664 ft 380 kts 64°
2026-05-06 08:34 11.19836 106.54636 11512 ft 373 kts 64°
2026-05-06 08:34 11.22136 106.59334 11081 ft 368 kts 64°
2026-05-06 08:34 11.23278 106.61665 10976 ft 368 kts 64°
2026-05-06 08:35 11.24421 106.64002 10848 ft 369 kts 64°
2026-05-06 08:35 11.25564 106.66339 10741 ft 369 kts 64°
2026-05-06 08:35 11.26708 106.68677 10638 ft 369 kts 64°
2026-05-06 08:35 11.27853 106.71018 10506 ft 369 kts 64°
2026-05-06 08:36 11.28765 106.73408 10363 ft 359 kts 78°
2026-05-06 08:36 11.28860 106.75892 10273 ft 343 kts 94°
2026-05-06 08:36 11.28645 106.78265 10184 ft 330 kts 94°
2026-05-06 08:36 11.28464 106.80554 10117 ft 318 kts 94°
2026-05-06 08:37 11.28305 106.82757 10037 ft 306 kts 94°
2026-05-06 08:37 11.28158 106.84884 9969 ft 295 kts 94°
2026-05-06 08:37 11.28016 106.86937 9873 ft 286 kts 94°
2026-05-06 08:37 11.27878 106.88924 9742 ft 278 kts 93°
2026-05-06 08:38 11.27745 106.90871 9529 ft 273 kts 93°
2026-05-06 08:38 11.27438 106.92757 9096 ft 272 kts 112°
2026-05-06 08:38 11.26333 106.94325 8667 ft 277 kts 139°
2026-05-06 08:38 11.24635 106.95234 8362 ft 278 kts 163°
2026-05-06 08:39 11.22723 106.95392 8026 ft 276 kts 185°
2026-05-06 08:39 11.20840 106.95088 7806 ft 274 kts 188°
2026-05-06 08:39 11.18955 106.94754 7570 ft 276 kts 188°
2026-05-06 08:39 11.17054 106.94414 7316 ft 278 kts 188°
2026-05-06 08:40 11.15145 106.94075 7065 ft 279 kts 188°
2026-05-06 08:40 11.13252 106.93661 6815 ft 279 kts 194°
2026-05-06 08:40 11.11395 106.93092 6573 ft 278 kts 196°
2026-05-06 08:40 11.09564 106.92501 6352 ft 274 kts 196°
2026-05-06 08:41 11.07761 106.91912 6130 ft 270 kts 196°
2026-05-06 08:41 11.06579 106.91525 5957 ft 269 kts 196°
2026-05-06 08:41 11.04236 106.90742 5642 ft 267 kts 198°
2026-05-06 08:41 11.02499 106.90089 5385 ft 266 kts 199°
2026-05-06 08:42 11.00774 106.89427 5148 ft 264 kts 199°
2026-05-06 08:42 10.97491 106.88154 4665 ft 257 kts 199°
2026-05-06 08:42 10.95837 106.87512 4418 ft 253 kts 199°
2026-05-06 08:43 10.94206 106.86882 4211 ft 247 kts 199°
2026-05-06 08:43 10.92626 106.86270 4022 ft 240 kts 199°
2026-05-06 08:43 10.91077 106.85671 3770 ft 235 kts 200°
2026-05-06 08:43 10.89741 106.84777 3470 ft 232 kts 230°
2026-05-06 08:44 10.88956 106.83379 3266 ft 224 kts 244°
2026-05-06 08:44 10.88356 106.81941 3059 ft 219 kts 247°
2026-05-06 08:44 10.87811 106.80502 2790 ft 216 kts 248°
2026-05-06 08:44 10.87281 106.79084 2518 ft 211 kts 248°
2026-05-06 08:45 10.86774 106.77729 2251 ft 198 kts 248°
2026-05-06 08:45 10.86306 106.76480 2041 ft 182 kts 248°
2026-05-06 08:45 10.85867 106.75312 1790 ft 174 kts 247°
2026-05-06 08:45 10.85432 106.74158 1602 ft 176 kts 248°
2026-05-06 08:46 10.85004 106.73015 1350 ft 169 kts 248°
2026-05-06 08:46 10.84594 106.71923 1149 ft 162 kts 247°
2026-05-06 08:46 10.84198 106.70871 947 ft 157 kts 248°
2026-05-06 08:46 10.83812 106.69844 770 ft 154 kts 247°
2026-05-06 08:47 10.83432 106.68834 581 ft 153 kts 247°
2026-05-06 08:47 10.83059 106.67828 402 ft 152 kts 249°
2026-05-06 08:47 10.82682 106.66831 197 ft 149 kts 248°
2026-05-06 08:47 10.82312 106.65858 43 ft 142 kts 248°
2026-05-06 08:48 10.82011 106.65066 42 ft 94 kts 249°
2026-05-06 08:48 10.81844 106.64620 43 ft 41 kts 248°
2026-05-06 08:48 10.81784 106.64480 43 ft 15 kts 239°
2026-05-06 08:48 10.81725 106.64405 42 ft 12 kts 225°
2026-05-06 08:49 10.81716 106.64396 42 ft 12 kts 224°